This demonstration page uses our WeatherBlox Daily Observations layout. Learn more.

Left ArrowRight Arrow

30.21309, -93.2044

Hourly Observations for August 16, 2020

Temp ( °F °C ) Dew Point ( °F °C ) Humidity (%) Winds ( mph kmh ) Pressure ( in mb ) Visibility ( mi km ) Precip ( " mm )
12:15 am 00:15 Clear 79 26.1 77 25.1 94 94 Calm 29.98 1015 10 16 0.00 0.00
12:35 am 00:35 Clear 78 25.7 77 25 96 96 E 3 6 29.99 1016 10 16 0.00 0.00
12:55 am 00:55 Clear 78 25.8 77 25.2 97 97 E 5 7 29.99 1016 10 16 0.00 0.00
1:15 am 01:15 Clear 78 25.5 77 25 97 97 SE 3 6 29.99 1016 10 16 0.00 0.00
1:35 am 01:35 Clear 78 25.8 77 25.2 97 97 Calm 29.98 1015 10 16 0.00 0.00
1:55 am 01:55 Clear 79 26 77 25.2 95 95 Calm 29.98 1015 10 16 0.00 0.00
2:15 am 02:15 Clear 78 25.8 77 25.1 96 96 Calm 29.97 1015 10 16 0.00 0.00
2:35 am 02:35 Partly Cloudy 78 25.4 76 24.6 95 95 Calm 29.98 1015 10 16 0.00 0.00
2:55 am 02:55 Mostly Cloudy 78 25.5 77 24.8 96 96 Calm 29.97 1015 10 16 0.00 0.00
3:15 am 03:15 Partly Cloudy 78 25.8 77 25.2 97 97 Calm 29.97 1015 10 16 0.00 0.00
3:35 am 03:35 Partly Cloudy 79 26.3 77 25.2 94 94 WNW 5 7 29.97 1015 10 16 0.00 0.00
3:55 am 03:55 Clear 83 28.4 77 25 82 82 W 7 11 29.96 1015 10 16 0.00 0.00
4:15 am 04:15 Clear 83 28.4 77 25.2 83 83 W 10 17 29.96 1015 10 16 0.00 0.00
4:35 am 04:35 Clear 83 28.3 77 25.2 83 83 W 12 19 29.96 1015 10 16 0.00 0.00
4:55 am 04:55 Clear 83 28.2 78 25.3 84 84 W 6 9 29.97 1015 10 16 0.00 0.00
5:15 am 05:15 Clear 82 28 78 25.3 85 85 WSW 6 9 29.97 1015 10 16 0.00 0.00
5:35 am 05:35 Clear 81 27.4 77 25.2 88 88 WNW 5 7 29.97 1015 10 16 0.00 0.00
6:00 am 06:00 Mostly Clear 81 27 77 25 89 89 NW 3 6 29.98 1015 10 16 0.00 0.00
6:45 am 06:45 Mostly Sunny 77 25 75 24 94 94 Calm 30.00 1016 10 16 0.00 0.00
7:45 am 07:45 Mostly Sunny 81 27 79 26 94 94 NW 6 9 30.01 1016 10 16 0.00 0.00
8:45 am 08:45 Partly Cloudy 84 29 79 26 84 84 NW 8 13 30.02 1017 10 16 0.00 0.00
9:50 am 09:50 Partly Cloudy 86 30 77 25 75 75 NW 12 19 30.03 1017 10 16 0.00 0.00
10:53 am 10:53 Mostly Sunny 90 32 77 25 67 67 NNW 8 13 30.03 1017 10 16 0.00 0.00
11:52 am 11:52 Mostly Sunny 91 33 79 26 67 67 NNW 8 13 30.02 1017 10 16 0.00 0.00
12:55 pm 12:55 Mostly Sunny 91 33 77 25 63 63 NW 6 9 30.00 1016 10 16 0.00 0.00
1:45 pm 13:45 Mostly Sunny 93 34 77 25 59 59 N 5 7 29.99 1016 10 16 0.00 0.00
2:50 pm 14:50 Partly Cloudy 95 35 75 24 53 53 N 10 17 29.98 1015 10 16 0.00 0.00
3:50 pm 15:50 Partly Cloudy 97 36 75 24 50 50 NW 9 15 29.96 1015 10 16 0.00 0.00
4:55 pm 16:55 Partly Cloudy 97 36 73 23 47 47 Calm 29.95 1014 10 16 0.00 0.00
5:55 pm 17:55 Partly Cloudy 95 35 75 24 53 53 NNE 3 6 29.93 1014 10 16 0.00 0.00
6:50 pm 18:50 Partly Cloudy 93 34 75 24 56 56 NNE 5 7 29.94 1014 10 16 0.00 0.00
7:55 pm 19:55 Mostly Clear 88 31 79 26 75 75 Calm 29.92 1013 10 16 0.00 0.00
8:50 pm 20:50 Mostly Cloudy with Nearby Thunderstorms 90 32 81 27 75 75 Calm 29.94 1014 10 16 0.00 0.00
9:50 pm 21:50 Mostly Clear 86 30 79 26 79 79 Calm 29.97 1015 10 16 0.00 0.00
10:15 pm 22:15 Clear 83 28.2 79 26.2 89 89 SSE 5 7 29.97 1015 10 16 0.00 0.00
10:35 pm 22:35 Clear 86 30.1 80 26.4 81 81 SW 5 7 29.98 1015 10 16 0.00 0.00
10:55 pm 22:55 Clear 86 30.2 80 26.6 81 81 WSW 6 9 29.98 1015 10 16 0.00 0.00
11:15 pm 23:15 Clear 83 28.1 79 26.1 89 89 ESE 5 7 29.98 1015 10 16 0.00 0.00
11:35 pm 23:35 Clear 82 27.8 79 26 90 90 Calm 29.99 1016 10 16 0.00 0.00
11:55 pm 23:55 Clear 82 27.8 79 26.3 92 92 S 5 7 29.99 1016 10 16 0.00 0.00

Powered by AerisWeather